K0HYD Weather Reports


Display with metric or nautical units.
time (UTC)temp
F
wind
direction
speed
MPH
gust
MPH
rain 1hr
in
rain 24hr
in
rain mn
in
humidity
%
barometer
mb
20260505065553 60 11 1.0 11.0 0.00 0.00 0.00 84 1001.7
20260505064052 64 79 1.0 1.0 0.00 0.00 0.00 73 1001.6
20260505062551 65 39 0.0 12.0 0.00 0.00 0.00 69 1001.3
20260505061050 69 321 0.0 1.0 0.00 0.00 0.00 79 1001.6
20260505055549 70 43 0.0 1.0 0.00 0.00 0.00 80 1000.7
20260505054048 71 41 0.0 1.0 0.00 0.00 0.00 75 1000.5
20260505052547 71 158 0.0 4.0 0.00 0.00 0.00 75 1000.3
20260505035541 70 79 0.0 0.0 0.00 0.00 0.00 72 1000.0
20260505032539 72 152 0.0 1.0 0.00 0.00 0.00 68 999.5
20260505031038 72 134 0.0 1.0 0.00 0.00 0.00 66 999.9
20260505025537 73 142 0.0 1.0 0.00 0.00 0.00 64 999.3
20260505022535 74 165 0.0 12.0 0.00 0.00 0.00 62 999.5
20260505021034 74 163 0.0 4.0 0.00 0.00 0.00 60 999.6
20260505015534 75 126 1.0 3.0 0.00 0.00 0.00 59 1000.1
20260505012532 76 145 0.0 1.0 0.00 0.00 0.00 55 999.4
20260505011030 76 140 5.0 7.0 0.00 0.00 0.00 54 999.0
20260505005530 77 174 0.0 8.0 0.00 0.00 0.00 52 998.9
20260505004028 78 143 6.0 6.0 0.00 0.00 0.00 50 998.7
20260505002528 78 134 0.0 6.0 0.00 0.00 0.00 49 999.0
20260504235526 80 128 3.0 6.0 0.00 0.00 0.00 46 999.1
20260504234025 80 174 0.0 4.0 0.00 0.00 0.00 45 999.2
20260504232524 81 188 0.0 2.0 0.00 0.00 0.00 44 999.3
20260504231023 82 148 0.0 6.0 0.00 0.00 0.00 43 999.2
20260504225522 83 150 0.0 6.0 0.00 0.00 0.00 42 999.1
20260504224021 84 210 0.0 1.0 0.00 0.00 0.00 42 999.1
20260504222520 85 134 7.0 7.0 0.00 0.00 0.00 41 999.0
20260504221019 85 134 4.0 11.0 0.00 0.00 0.00 39 999.1
20260504214017 87 150 0.0 7.0 0.00 0.00 0.00 36 999.3
20260504212516 87 116 2.0 6.0 0.00 0.00 0.00 33 999.6
20260504205514 88 196 0.0 6.0 0.00 0.00 0.00 32 999.8
20260504204013 88 160 0.0 1.0 0.00 0.00 0.00 32 1000.0
20260504202512 88 196 0.0 0.0 0.00 0.00 0.00 33 1000.2
20260504201011 87 230 0.0 0.0 0.00 0.00 0.00 33 1000.4
20260504195511 88 126 1.0 2.0 0.00 0.00 0.00 33 1000.7
20260504194009 87 131 0.0 2.0 0.00 0.00 0.00 34 1001.0
20260504192509 87 148 0.0 1.0 0.00 0.00 0.00 34 1001.1
20260504185507 86 132 0.0 0.0 0.00 0.00 0.00 37 1001.6
20260504184006 84 129 0.0 0.0 0.00 0.00 0.00 38 1001.7
20260504182504 84 212 0.0 0.0 0.00 0.00 0.00 37 1002.0
20260504181004 82 136 0.0 2.0 0.00 0.00 0.00 39 1002.1
20260504175503 82 233 0.0 1.0 0.00 0.00 0.00 39 1002.3
20260504174002 81 253 0.0 2.0 0.00 0.00 0.00 40 1002.6
20260504172501 80 222 0.0 1.0 0.00 0.00 0.00 42 1002.5
20260504171000 78 221 0.0 1.0 0.00 0.00 0.00 44 1002.6
20260504150952 71 250 1.0 1.0 0.00 0.00 0.00 53 1002.8
20260504140948 66 242 0.0 1.0 0.00 0.00 0.00 58 1003.0